Orbital Elements at Epoch 2459200.5 (2020-Dec-17.0) TDB
Reference: JPL 25 (heliocentric ecliptic J2000)
Element | Value | Uncertainty (1-sigma) | Units |
e | .1457915992522227 | 3.8729e-08 | |
a | 3.15431802989409 | 2.4306e-08 | au |
q | 2.69444495976571 | 1.3375e-07 | au |
i | 4.605479939305901 | 5.1956e-06 | deg |
node | 346.5632125557887 | 5.1711e-05 | deg |
peri | 287.3350454883344 | 5.4887e-05 | deg |
M | 324.0879205170539 | 2.0352e-05 | deg |
tp | 2459404.624294744305 (2021-Jul-09.12429474) | 0.0001168 | TDB |
period | 2046.240350488363 5.60 | 2.3652e-05 6.476e-08 | d yr |
n | .1759324118078705 | 2.0335e-09 | deg/d |
Q | 3.61419110002247 | 2.785e-08 | au |
|
| | Orbit Determination Parameters
Additional Information
|